SQ3KKR-15 Weather Reports


time (UTC)temp
C
wind
direction
speed
KPH
gust
KPH
rain 1hr
cm
rain 24hr
cm
rain mn
cm
humidity
%
barometer
mb
20210730111306 25 0.0 0.0 0.00 0.00 0.00 32 1005.8
20210730110306 25 0.0 0.0 0.00 0.00 0.00 33 1005.8
20210730104306 25 0.0 0.0 0.00 0.00 0.00 33 1006.0
20210730103306 25 0.0 0.0 0.00 0.00 0.00 33 1006.1
20210730101306 25 0.0 0.0 0.00 0.00 0.00 33 1006.3
20210730100306 25 0.0 0.0 0.00 0.00 0.00 33 1006.4
20210730091306 23 0.0 0.0 0.00 0.00 0.00 40 1006.9
20210730081306 21 0.0 0.0 0.00 0.00 0.00 47 1007.0
20210730073306 20 0.0 0.0 0.00 0.00 0.00 51 1007.4
20210730070306 18 0.0 0.0 0.00 0.00 0.00 52 1007.5
20210730062306 18 0.0 0.0 0.00 0.00 0.00 52 1007.6
20210730061306 18 0.0 0.0 0.00 0.00 0.00 52 1007.6
20210730055306 18 0.0 0.0 0.00 0.00 0.00 51 1007.6
20210730051305 18 0.0 0.0 0.00 0.00 0.00 50 1007.7
20210730041305 15 0.0 0.0 0.00 0.00 0.00 62 1007.7
20210730034305 13 0.0 0.0 0.00 0.00 0.00 63 1007.8
20210730031305 13 0.0 0.0 0.00 0.00 0.00 62 1007.7
20210730024305 13 0.0 0.0 0.00 0.00 0.00 61 1007.7
20210730023305 13 0.0 0.0 0.00 0.00 0.00 60 1007.7
20210730021305 13 0.0 0.0 0.00 0.00 0.00 60 1007.6
20210730014305 13 0.0 0.0 0.00 0.00 0.00 60 1007.6
20210730012306 14 0.0 0.0 0.00 0.00 0.00 59 1007.8
20210730011305 14 0.0 0.0 0.00 0.00 0.00 59 1007.9
20210730004305 14 0.0 0.0 0.00 0.00 0.00 58 1007.8
20210730002306 15 0.0 0.0 0.00 0.00 0.00 58 1007.8
20210729234305 15 0.0 0.0 0.00 0.00 0.00 54 1007.9
20210729233305 16 0.0 0.0 0.00 0.00 0.00 53 1007.9
20210729232306 16 0.0 0.0 0.00 0.00 0.00 54 1007.9
20210729231305 16 0.0 0.0 0.00 0.00 0.00 53 1007.9
20210729230305 16 0.0 0.0 0.00 0.00 0.00 52 1008.0
20210729223305 17 0.0 0.0 0.00 0.00 0.00 46 1007.8
20210729222305 17 0.0 0.0 0.00 0.00 0.00 46 1007.8
20210729220305 17 0.0 0.0 0.00 0.00 0.00 48 1007.7
20210729215306 17 0.0 0.0 0.00 0.00 0.00 49 1007.7
20210729214305 17 0.0 0.0 0.00 0.00 0.00 49 1007.7
20210729213305 18 0.0 0.0 0.00 0.00 0.00 47 1007.7
20210729212305 18 0.0 0.0 0.00 0.00 0.00 46 1007.7
20210729201305 20 0.0 0.0 0.00 0.00 0.00 40 1007.3
20210729200305 21 0.0 0.0 0.00 0.00 0.00 40 1007.3
20210729195306 21 0.0 0.0 0.00 0.00 0.00 39 1007.2
20210729194304 21 0.0 0.0 0.00 0.00 0.00 39 1007.1
20210729192306 21 0.0 0.0 0.00 0.00 0.00 38 1007.1
20210729191304 22 0.0 0.0 0.00 0.00 0.00 37 1006.9
20210729190305 22 0.0 0.0 0.00 0.00 0.00 37 1006.9
20210729184304 23 0.0 0.0 0.00 0.00 0.00 35 1006.7
20210729182305 23 0.0 0.0 0.00 0.00 0.00 34 1006.7
20210729181304 24 0.0 0.0 0.00 0.00 0.00 33 1006.7
20210729180304 25 0.0 0.0 0.00 0.00 0.00 32 1006.6
20210729175305 25 0.0 0.0 0.00 0.00 0.00 31 1006.6
20210729173304 27 0.0 0.0 0.00 0.00 0.00 29 1006.4
20210729172306 28 0.0 0.0 0.00 0.00 0.00 28 1006.3
20210729171304 28 0.0 0.0 0.00 0.00 0.00 28 1006.3
20210729165306 28 0.0 0.0 0.00 0.00 0.00 28 1006.4
20210729164304 28 0.0 0.0 0.00 0.00 0.00 28 1006.4
20210729163304 27 0.0 0.0 0.00 0.00 0.00 29 1006.3
20210729161304 27 0.0 0.0 0.00 0.00 0.00 28 1006.4
20210729160304 27 0.0 0.0 0.00 0.00 0.00 30 1006.2
20210729154304 27 0.0 0.0 0.00 0.00 0.00 31 1006.3
20210729153304 26 0.0 0.0 0.00 0.00 0.00 31 1006.4
20210729152305 26 0.0 0.0 0.00 0.00 0.00 31 1006.3
20210729150304 26 0.0 0.0 0.00 0.00 0.00 32 1006.3
20210729144304 26 0.0 0.0 0.00 0.00 0.00 32 1006.5
20210729143304 27 0.0 0.0 0.00 0.00 0.00 32 1006.5
20210729142305 28 0.0 0.0 0.00 0.00 0.00 30 1006.6
20210729141304 28 0.0 0.0 0.00 0.00 0.00 30 1006.6
20210729140304 28 0.0 0.0 0.00 0.00 0.00 30 1006.6
20210729132306 28 0.0 0.0 0.00 0.00 0.00 30 1006.5
20210729130304 28 0.0 0.0 0.00 0.00 0.00 31 1006.5
20210729122305 27 0.0 0.0 0.00 0.00 0.00 34 1006.6
20210729114303 27 0.0 0.0 0.00 0.00 0.00 34 1007.1
20210729113303 28 0.0 0.0 0.00 0.00 0.00 32 1007.0